STARLINK-11512, 62517

Orbit data source: Space-Track

STARLINK-11512, 62517 is a payload satellite owned by SpaceX/Seattle (US) in LEO that was launched on Wed, 08 Jan 2025 UTC via an FALCON 9 launch vehicle from the Air Force Eastern Test Range (AFETR). Payload-class satellites include a variety of spacecraft equipped with specific instruments for various scientific and technological missions. These include communications satellites like Starlink; space stations such as the ISS; scientific satellites like the Hubble; Earth observation satellites from companies like Planet Labs, Umbra, and HawkEye 360; GPS; miniature CubeSats for education and research; and military/defense satellites.

Loading next visibility...
Identifier
62517, 2025-004G
Orbit
LEO
Last TLE update
12 hours ago
Origin
Manufacturer
SpaceX/Seattle
Mission
Operational Commercial Communications
Bus & Motor
STARLINK V2M, Unknown motor
Mass
730 kg wet, ~700 kg dry
Launch date (UTC)
2025-01-08 (6 months ago)
Launch vehicle
FALCON 9
Launch site
Air Force Eastern Test Range (AFETR)
Object type
Payload
Rocket body
Debris
Shape & HBR
Box + 2 Pan, 29 m
Radar Cross Section
36.964 m², Large (>1 m²)

Expand to show TLE details & history

TLE from 12 hours ago
0 STARLINK-11512
1 62517U 25004G   25181.90440892  .00207018  00000-0  15690-2 0  9996
2 62517  42.9998 148.0146 0001592 249.1618 110.9080 15.70960888 28524
Epoch: 2025-06-30T21:42Z
TLE epoch observation values (Epoch: 2025-06-30T21:42:20.93Z)
Latitude
0.00002°
Longitude
-96.78011°
Altitude
356.303 km
Speed
7.697 km/s
True Right ascension
09h 52m 03s
True Declination
0° 00' 00"
Sunlit
Object was in daylight at epoch
Visualization orbit readout
Latitude
-42.38573°
Longitude
156.97266°
Altitude
367.528 km
Speed
7.69 km/s
Apparent Right ascension
05h 55m 01s
Apparent Declination
-52° 10' 52"
Sunlit
Object is in daylight
Visualization observer readout
Local Sidereal Time
21:07:36
Azimuth
126.936° SE
Elevation
-55.154°
Doppler factor
1
Orbital elements
Apogee altitude
359.204 km
Perigee altitude
357.059 km
Semi-major axis
6,736.268 km
Eccentricity
0.00016
Inclination
42.9998°
RAAN
148.0146°
Arg. of periapsis
249.1618°
True anomaly
Unknown
Mean anomaly
110.908°
Eccentric anomaly
Unknown
Mean motion
3.92567 °/min
Orbital period
91.7 mins
BSTAR
0.001569
Loading maneuver chart data...
Loading SW <> Apogee altitude chart data...
Loading historical data...
Loading historical data...
Loading historical data...
Loading historical data...
Loading historical data...
Loading historical data...
Loading historical data...

STARLINK-11512 Visibility forecast

Observer location: undefined°, undefined°

Span
Click to sort rows by Start time (UTC) header in descending order
Start Az.
Max El. time (UTC)
Max El. Az.
Max El.
End time (UTC)
End Az.
4 mins2025-07-02 01:24:19.024Z231.549° WSW2025-07-02 01:26:19.024Z166.367° S39.375°2025-07-02 01:28:19.024Z82.446° E
4 mins2025-07-02 03:01:19.024Z293.695° NW2025-07-02 03:02:19.024Z336.603° NNW35.757°2025-07-02 03:05:19.024Z69.062° E
4 mins2025-07-02 04:37:19.024Z300.969° NW2025-07-02 04:39:19.024Z50.596° ENE35.906°2025-07-02 04:41:19.024Z88.076° E
4 mins2025-07-02 06:13:19.024Z264.689° W2025-07-02 06:15:19.024Z181.619° SSW30.127°2025-07-02 06:17:19.024Z138.595° SSE
|